| time (UTC) | temp F | wind direction | speed MPH | gust MPH | rain 1hr in | rain 24hr in | rain mn in | humidity % | barometer mb |
| 20260510091033 | 55 | 13 | 10.0 | 18.0 | 0.00 | 0.00 | 0.00 | 68 | 1016.6 |
| 20260510090536 | 55 | 355 | 7.0 | 18.0 | 0.00 | 0.00 | 0.00 | 70 | 1016.6 |
| 20260510090049 | 54 | 52 | 9.0 | 18.0 | 0.00 | 0.00 | 0.00 | 70 | 1016.5 |
| 20260510085537 | 54 | 69 | 7.0 | 16.0 | 0.00 | 0.00 | 0.00 | 70 | 1016.5 |
| 20260510085037 | 54 | 15 | 8.0 | 17.0 | 0.00 | 0.00 | 0.00 | 71 | 1016.5 |
| 20260510084546 | 54 | 38 | 9.0 | 20.0 | 0.00 | 0.00 | 0.00 | 71 | 1016.6 |
| 20260510084036 | 54 | 44 | 7.0 | 20.0 | 0.00 | 0.00 | 0.00 | 71 | 1016.5 |
| 20260510083536 | 54 | 38 | 9.0 | 20.0 | 0.00 | 0.00 | 0.00 | 71 | 1016.5 |
| 20260510083047 | 54 | 60 | 9.0 | 20.0 | 0.00 | 0.00 | 0.00 | 71 | 1016.6 |
| 20260510082537 | 53 | 55 | 7.0 | 22.0 | 0.00 | 0.00 | 0.00 | 71 | 1016.6 |
| 20260510082036 | 53 | 329 | 12.0 | 22.0 | 0.00 | 0.00 | 0.00 | 71 | 1016.6 |
| 20260510081550 | 53 | 5 | 9.0 | 19.0 | 0.00 | 0.00 | 0.00 | 72 | 1016.6 |
| 20260510081035 | 53 | 46 | 11.0 | 25.0 | 0.00 | 0.00 | 0.00 | 72 | 1016.6 |
| 20260510080534 | 52 | 42 | 10.0 | 25.0 | 0.00 | 0.00 | 0.00 | 72 | 1016.5 |
| 20260510080051 | 52 | 64 | 9.0 | 22.0 | 0.00 | 0.00 | 0.00 | 72 | 1016.6 |
| 20260510075537 | 52 | 69 | 8.0 | 22.0 | 0.00 | 0.00 | 0.00 | 73 | 1016.6 |
| 20260510075033 | 52 | 64 | 10.0 | 22.0 | 0.00 | 0.00 | 0.00 | 72 | 1016.6 |
| 20260510074559 | 52 | 80 | 9.0 | 19.0 | 0.00 | 0.00 | 0.00 | 73 | 1016.5 |
| 20260510074034 | 52 | 23 | 9.0 | 21.0 | 0.00 | 0.00 | 0.00 | 73 | 1016.6 |
| 20260510073533 | 52 | 61 | 9.0 | 21.0 | 0.00 | 0.00 | 0.00 | 73 | 1016.4 |
| 20260510073053 | 52 | 51 | 7.0 | 21.0 | 0.00 | 0.00 | 0.00 | 73 | 1016.5 |
| 20260510072536 | 52 | 34 | 7.0 | 20.0 | 0.00 | 0.00 | 0.00 | 73 | 1016.5 |
| 20260510072038 | 52 | 360 | 10.0 | 20.0 | 0.00 | 0.00 | 0.00 | 73 | 1016.5 |
| 20260510071551 | 52 | 36 | 10.0 | 20.0 | 0.00 | 0.00 | 0.00 | 73 | 1016.4 |
| 20260510071036 | 52 | 23 | 10.0 | 23.0 | 0.00 | 0.00 | 0.00 | 73 | 1016.4 |
| 20260510070536 | 52 | 49 | 9.0 | 23.0 | 0.00 | 0.00 | 0.00 | 74 | 1016.4 |
| 20260510070105 | 51 | 64 | 7.0 | 19.0 | 0.00 | 0.00 | 0.00 | 74 | 1016.4 |
| 20260510065537 | 51 | 42 | 7.0 | 19.0 | 0.00 | 0.00 | 0.00 | 74 | 1016.4 |
| 20260510065035 | 51 | 33 | 9.0 | 22.0 | 0.00 | 0.00 | 0.00 | 75 | 1016.3 |
| 20260510064555 | 51 | 26 | 10.0 | 22.0 | 0.00 | 0.00 | 0.00 | 75 | 1016.3 |
| 20260510064033 | 51 | 37 | 10.0 | 19.0 | 0.00 | 0.00 | 0.00 | 75 | 1016.5 |
| 20260510063536 | 51 | 22 | 9.0 | 18.0 | 0.00 | 0.00 | 0.00 | 75 | 1016.4 |
| 20260510063046 | 51 | 43 | 9.0 | 18.0 | 0.00 | 0.00 | 0.00 | 75 | 1016.4 |
| 20260510062534 | 51 | 347 | 8.0 | 19.0 | 0.00 | 0.00 | 0.00 | 75 | 1016.3 |
| 20260510062036 | 51 | 17 | 9.0 | 19.0 | 0.00 | 0.00 | 0.00 | 75 | 1016.4 |
| 20260510061552 | 51 | 58 | 8.0 | 19.0 | 0.00 | 0.00 | 0.00 | 76 | 1016.3 |
| 20260510061037 | 51 | 29 | 8.0 | 16.0 | 0.00 | 0.00 | 0.00 | 76 | 1016.3 |
| 20260510060537 | 50 | 240 | 5.0 | 15.0 | 0.00 | 0.00 | 0.00 | 76 | 1016.3 |
| 20260510060052 | 50 | 34 | 7.0 | 15.0 | 0.00 | 0.00 | 0.00 | 76 | 1016.2 |
| 20260510055536 | 50 | 45 | 9.0 | 18.0 | 0.00 | 0.00 | 0.00 | 76 | 1016.2 |
| 20260510055035 | 50 | 58 | 7.0 | 18.0 | 0.00 | 0.00 | 0.00 | 77 | 1016.2 |
| 20260510054549 | 50 | 46 | 7.0 | 16.0 | 0.00 | 0.00 | 0.00 | 76 | 1016.2 |
| 20260510054037 | 50 | 129 | 8.0 | 16.0 | 0.00 | 0.00 | 0.00 | 76 | 1016.2 |
| 20260510053536 | 50 | 47 | 7.0 | 23.0 | 0.00 | 0.00 | 0.00 | 76 | 1016.3 |
| 20260510053047 | 50 | 59 | 8.0 | 23.0 | 0.00 | 0.00 | 0.00 | 76 | 1016.2 |
| 20260510052536 | 50 | 22 | 6.0 | 17.0 | 0.00 | 0.00 | 0.00 | 76 | 1016.3 |
| 20260510052036 | 50 | 22 | 7.0 | 17.0 | 0.00 | 0.00 | 0.00 | 76 | 1016.3 |
| 20260510051548 | 50 | 54 | 7.0 | 17.0 | 0.00 | 0.00 | 0.00 | 76 | 1016.3 |
| 20260510051036 | 50 | 26 | 6.0 | 21.0 | 0.00 | 0.00 | 0.00 | 76 | 1016.3 |
| 20260510050537 | 50 | 9 | 6.0 | 21.0 | 0.00 | 0.00 | 0.00 | 76 | 1016.3 |
| 20260510050053 | 50 | 24 | 7.0 | 15.0 | 0.00 | 0.00 | 0.00 | 76 | 1016.3 |
| 20260510045536 | 50 | 59 | 6.0 | 15.0 | 0.00 | 0.00 | 0.00 | 75 | 1016.4 |
| 20260510045035 | 50 | 62 | 4.0 | 17.0 | 0.00 | 0.00 | 0.00 | 75 | 1016.4 |
| 20260510044548 | 50 | 61 | 6.0 | 17.0 | 0.00 | 0.00 | 0.00 | 75 | 1016.3 |
| 20260510044036 | 51 | 58 | 6.0 | 13.0 | 0.00 | 0.00 | 0.00 | 75 | 1016.3 |
| 20260510043536 | 51 | 32 | 5.0 | 14.0 | 0.00 | 0.00 | 0.00 | 74 | 1016.2 |
| 20260510043042 | 51 | 27 | 7.0 | 14.0 | 0.00 | 0.00 | 0.00 | 75 | 1016.2 |
| 20260510042537 | 51 | 320 | 6.0 | 14.0 | 0.00 | 0.00 | 0.00 | 74 | 1016.2 |
| 20260510042039 | 51 | 33 | 4.0 | 14.0 | 0.00 | 0.00 | 0.00 | 74 | 1016.3 |
| 20260510041556 | 51 | 16 | 5.0 | 14.0 | 0.00 | 0.00 | 0.00 | 73 | 1016.3 |
| 20260510041037 | 52 | 45 | 5.0 | 12.0 | 0.00 | 0.00 | 0.00 | 73 | 1016.4 |
| 20260510040540 | 52 | 15 | 4.0 | 15.0 | 0.00 | 0.00 | 0.00 | 73 | 1016.4 |
| 20260510040052 | 52 | 42 | 5.0 | 15.0 | 0.00 | 0.00 | 0.00 | 73 | 1016.4 |
| 20260510035537 | 52 | 42 | 7.0 | 14.0 | 0.00 | 0.00 | 0.00 | 72 | 1016.4 |
| 20260510035036 | 52 | 87 | 7.0 | 13.0 | 0.00 | 0.00 | 0.00 | 72 | 1016.5 |
| 20260510034549 | 52 | 26 | 4.0 | 14.0 | 0.00 | 0.00 | 0.00 | 71 | 1016.4 |
| 20260510034036 | 52 | 60 | 6.0 | 14.0 | 0.00 | 0.00 | 0.00 | 71 | 1016.5 |
| 20260510033535 | 53 | 71 | 6.0 | 14.0 | 0.00 | 0.00 | 0.00 | 71 | 1016.4 |
| 20260510033103 | 53 | 38 | 6.0 | 15.0 | 0.00 | 0.00 | 0.00 | 70 | 1016.5 |
| 20260510032538 | 53 | 67 | 6.0 | 15.0 | 0.00 | 0.00 | 0.00 | 69 | 1016.6 |
| 20260510032036 | 53 | 41 | 6.0 | 15.0 | 0.00 | 0.00 | 0.00 | 68 | 1016.7 |
| 20260510031543 | 53 | 26 | 6.0 | 13.0 | 0.00 | 0.00 | 0.00 | 67 | 1016.7 |
| 20260510031037 | 53 | 46 | 6.0 | 13.0 | 0.00 | 0.00 | 0.00 | 66 | 1016.7 |
| 20260510030537 | 53 | 42 | 6.0 | 13.0 | 0.00 | 0.00 | 0.00 | 65 | 1016.8 |
| 20260510030048 | 54 | 41 | 5.0 | 13.0 | 0.00 | 0.00 | 0.00 | 64 | 1016.8 |
| 20260510025537 | 54 | 45 | 6.0 | 13.0 | 0.00 | 0.00 | 0.00 | 63 | 1016.8 |
| 20260510025037 | 54 | 340 | 4.0 | 13.0 | 0.00 | 0.00 | 0.00 | 62 | 1016.7 |
| 20260510024545 | 54 | 5 | 6.0 | 13.0 | 0.00 | 0.00 | 0.00 | 61 | 1016.8 |
| 20260510024037 | 55 | 344 | 4.0 | 12.0 | 0.00 | 0.00 | 0.00 | 61 | 1016.8 |
| 20260510023537 | 55 | 39 | 5.0 | 12.0 | 0.00 | 0.00 | 0.00 | 60 | 1016.8 |
| 20260510023047 | 55 | 94 | 4.0 | 12.0 | 0.00 | 0.00 | 0.00 | 60 | 1016.8 |
| 20260510022536 | 55 | 13 | 5.0 | 13.0 | 0.00 | 0.00 | 0.00 | 60 | 1016.8 |
| 20260510022036 | 55 | 34 | 3.0 | 16.0 | 0.00 | 0.00 | 0.00 | 60 | 1016.5 |
| 20260510021547 | 55 | 57 | 8.0 | 16.0 | 0.00 | 0.00 | 0.00 | 59 | 1016.4 |
| 20260510021035 | 56 | 52 | 5.0 | 15.0 | 0.00 | 0.00 | 0.00 | 59 | 1016.4 |
| 20260510020536 | 56 | 27 | 5.0 | 15.0 | 0.00 | 0.00 | 0.00 | 59 | 1016.4 |
| 20260510020045 | 56 | 21 | 5.0 | 14.0 | 0.00 | 0.00 | 0.00 | 58 | 1016.4 |
| 20260510015536 | 56 | 21 | 7.0 | 14.0 | 0.00 | 0.00 | 0.00 | 58 | 1016.4 |
| 20260510015038 | 56 | 30 | 6.0 | 14.0 | 0.00 | 0.00 | 0.00 | 57 | 1016.4 |
| 20260510014543 | 56 | 59 | 5.0 | 13.0 | 0.00 | 0.00 | 0.00 | 56 | 1016.4 |
| 20260510014033 | 56 | 5 | 4.0 | 14.0 | 0.00 | 0.00 | 0.00 | 56 | 1016.4 |
| 20260510013534 | 56 | 5 | 6.0 | 14.0 | 0.00 | 0.00 | 0.00 | 55 | 1016.5 |
| 20260510013044 | 56 | 65 | 5.0 | 14.0 | 0.00 | 0.00 | 0.00 | 55 | 1016.5 |
| 20260510012535 | 57 | 44 | 6.0 | 14.0 | 0.00 | 0.00 | 0.00 | 54 | 1016.4 |
| 20260510012036 | 57 | 57 | 4.0 | 12.0 | 0.00 | 0.00 | 0.00 | 54 | 1016.4 |
| 20260510011541 | 57 | 17 | 4.0 | 12.0 | 0.00 | 0.00 | 0.00 | 54 | 1016.4 |
| 20260510011037 | 57 | 60 | 5.0 | 12.0 | 0.00 | 0.00 | 0.00 | 53 | 1016.6 |
| 20260510010536 | 57 | 40 | 3.0 | 11.0 | 0.00 | 0.00 | 0.00 | 53 | 1016.6 |
| 20260510010058 | 57 | 67 | 3.0 | 14.0 | 0.00 | 0.00 | 0.00 | 53 | 1016.6 |
| 20260510005536 | 57 | 54 | 4.0 | 14.0 | 0.00 | 0.00 | 0.00 | 53 | 1016.6 |
| 20260510005037 | 57 | 41 | 7.0 | 14.0 | 0.00 | 0.00 | 0.00 | 52 | 1016.5 |
| 20260510004546 | 58 | 63 | 7.0 | 14.0 | 0.00 | 0.00 | 0.00 | 52 | 1016.6 |
| 20260510004036 | 58 | 63 | 7.0 | 14.0 | 0.00 | 0.00 | 0.00 | 51 | 1016.5 |
| 20260510003534 | 58 | 98 | 5.0 | 13.0 | 0.00 | 0.00 | 0.00 | 51 | 1016.6 |
| 20260510003058 | 58 | 57 | 7.0 | 14.0 | 0.00 | 0.00 | 0.00 | 50 | 1016.5 |
| 20260510002535 | 58 | 85 | 4.0 | 14.0 | 0.00 | 0.00 | 0.00 | 51 | 1016.5 |
| 20260510002036 | 58 | 25 | 5.0 | 14.0 | 0.00 | 0.00 | 0.00 | 50 | 1016.5 |
| 20260510001550 | 58 | 41 | 4.0 | 11.0 | 0.00 | 0.00 | 0.00 | 50 | 1016.5 |
| 20260510001037 | 58 | 24 | 4.0 | 12.0 | 0.00 | 0.00 | 0.00 | 50 | 1016.6 |
| 20260510000534 | 58 | 51 | 4.0 | 14.0 | 0.00 | 0.00 | 0.00 | 49 | 1016.6 |
| 20260510000052 | 59 | 58 | 6.0 | 14.0 | 0.00 | 0.00 | 0.00 | 49 | 1016.6 |
| 20260509235534 | 59 | 62 | 4.0 | 14.0 | 0.00 | 0.00 | 0.00 | 49 | 1016.6 |
| 20260509235035 | 59 | 59 | 4.0 | 12.0 | 0.00 | 0.00 | 0.00 | 49 | 1016.6 |
| 20260509234603 | 59 | 45 | 3.0 | 10.0 | 0.00 | 0.00 | 0.00 | 49 | 1016.6 |
| 20260509234035 | 59 | 52 | 4.0 | 10.0 | 0.00 | 0.00 | 0.00 | 49 | 1016.5 |
| 20260509233537 | 59 | 71 | 3.0 | 10.0 | 0.00 | 0.00 | 0.00 | 49 | 1016.5 |
| 20260509233045 | 59 | 49 | 3.0 | 9.0 | 0.00 | 0.00 | 0.00 | 49 | 1016.6 |
| 20260509232534 | 59 | 33 | 5.0 | 11.0 | 0.00 | 0.00 | 0.00 | 49 | 1016.5 |
| 20260509232036 | 60 | 65 | 4.0 | 11.0 | 0.00 | 0.00 | 0.00 | 49 | 1016.5 |
| 20260509231546 | 60 | 26 | 4.0 | 11.0 | 0.00 | 0.00 | 0.00 | 49 | 1016.5 |
| 20260509231035 | 60 | 69 | 5.0 | 12.0 | 0.00 | 0.00 | 0.00 | 49 | 1016.5 |
| 20260509230534 | 60 | 68 | 5.0 | 12.0 | 0.00 | 0.00 | 0.00 | 49 | 1016.5 |
| 20260509230048 | 60 | 63 | 3.0 | 10.0 | 0.00 | 0.00 | 0.00 | 49 | 1016.4 |
| 20260509225539 | 60 | 69 | 3.0 | 10.0 | 0.00 | 0.00 | 0.00 | 50 | 1016.4 |
| 20260509225035 | 60 | 42 | 2.0 | 8.0 | 0.00 | 0.00 | 0.00 | 50 | 1016.3 |
| 20260509224549 | 61 | 16 | 3.0 | 9.0 | 0.00 | 0.00 | 0.00 | 50 | 1016.3 |
| 20260509224036 | 61 | 44 | 4.0 | 11.0 | 0.00 | 0.00 | 0.00 | 50 | 1016.3 |
| 20260509223536 | 61 | 40 | 4.0 | 12.0 | 0.00 | 0.00 | 0.00 | 49 | 1016.3 |
| 20260509223049 | 61 | 50 | 5.0 | 12.0 | 0.00 | 0.00 | 0.00 | 49 | 1016.3 |
| 20260509222536 | 61 | 49 | 4.0 | 12.0 | 0.00 | 0.00 | 0.00 | 50 | 1016.2 |
| 20260509222036 | 62 | 16 | 3.0 | 11.0 | 0.00 | 0.00 | 0.00 | 51 | 1016.4 |
| 20260509221550 | 62 | 44 | 3.0 | 12.0 | 0.00 | 0.00 | 0.00 | 51 | 1016.3 |
| 20260509221035 | 62 | 84 | 6.0 | 12.0 | 0.00 | 0.00 | 0.00 | 51 | 1016.1 |
| 20260509220535 | 62 | 42 | 5.0 | 12.0 | 0.00 | 0.00 | 0.00 | 52 | 1016.2 |
| 20260509220100 | 62 | 64 | 6.0 | 12.0 | 0.00 | 0.00 | 0.00 | 53 | 1016.1 |
| 20260509215535 | 62 | 42 | 3.0 | 9.0 | 0.00 | 0.00 | 0.00 | 54 | 1016.2 |
| 20260509215038 | 62 | 63 | 4.0 | 12.0 | 0.00 | 0.00 | 0.00 | 53 | 1016.1 |
| 20260509214547 | 63 | 92 | 4.0 | 12.0 | 0.00 | 0.00 | 0.00 | 53 | 1016.1 |
| 20260509214036 | 63 | 78 | 6.0 | 12.0 | 0.00 | 0.00 | 0.00 | 53 | 1016.2 |
| 20260509213537 | 63 | 58 | 4.0 | 9.0 | 0.00 | 0.00 | 0.00 | 55 | 1016.1 |
| 20260509213050 | 63 | 71 | 3.0 | 8.0 | 0.00 | 0.00 | 0.00 | 56 | 1016.1 |
| 20260509212535 | 63 | 37 | 3.0 | 9.0 | 0.00 | 0.00 | 0.00 | 56 | 1016.2 |
| 20260509212035 | 63 | 46 | 4.0 | 9.0 | 0.00 | 0.00 | 0.00 | 56 | 1016.1 |
| 20260509211554 | 63 | 55 | 3.0 | 7.0 | 0.00 | 0.00 | 0.00 | 57 | 1016.1 |
| 20260509211033 | 63 | 72 | 2.0 | 7.0 | 0.00 | 0.00 | 0.00 | 57 | 1016.2 |
| 20260509210538 | 63 | 61 | 3.0 | 7.0 | 0.00 | 0.00 | 0.00 | 58 | 1016.1 |
| 20260509210047 | 63 | 59 | 2.0 | 5.0 | 0.00 | 0.00 | 0.00 | 59 | 1016.1 |
| 20260509205536 | 63 | 74 | 1.0 | 4.0 | 0.00 | 0.00 | 0.00 | 60 | 1016.0 |
| 20260509205036 | 63 | 63 | 1.0 | 4.0 | 0.00 | 0.00 | 0.00 | 60 | 1016.0 |
| 20260509204557 | 63 | 53 | 1.0 | 4.0 | 0.00 | 0.00 | 0.00 | 60 | 1015.9 |
| 20260509204036 | 63 | 46 | 1.0 | 3.0 | 0.00 | 0.00 | 0.00 | 60 | 1015.8 |
| 20260509203536 | 64 | 54 | 0.0 | 4.0 | 0.00 | 0.00 | 0.00 | 59 | 1015.7 |
| 20260509203047 | 64 | 54 | 2.0 | 4.0 | 0.00 | 0.00 | 0.00 | 59 | 1015.5 |
| 20260509202536 | 64 | 0 | 1.0 | 4.0 | 0.00 | 0.00 | 0.00 | 59 | 1015.6 |
| 20260509202036 | 64 | 40 | 2.0 | 4.0 | 0.00 | 0.00 | 0.00 | 59 | 1015.5 |
| 20260509201550 | 64 | 57 | 1.0 | 4.0 | 0.00 | 0.00 | 0.00 | 60 | 1015.5 |
| 20260509201037 | 64 | 42 | 2.0 | 4.0 | 0.00 | 0.00 | 0.00 | 60 | 1015.4 |
| 20260509200533 | 65 | 28 | 1.0 | 4.0 | 0.00 | 0.00 | 0.00 | 60 | 1015.4 |
| 20260509200045 | 65 | 36 | 0.0 | 4.0 | 0.00 | 0.00 | 0.00 | 60 | 1015.5 |
| 20260509195534 | 65 | 34 | 0.0 | 3.0 | 0.00 | 0.00 | 0.00 | 60 | 1015.4 |
| 20260509195033 | 65 | 0 | 0.0 | 0.0 | 0.00 | 0.00 | 0.00 | 60 | 1015.4 |
| 20260509194545 | 65 | 0 | 0.0 | 0.0 | 0.00 | 0.00 | 0.00 | 60 | 1015.4 |
| 20260509194035 | 65 | 0 | 0.0 | 0.0 | 0.00 | 0.00 | 0.00 | 60 | 1015.3 |
| 20260509193537 | 65 | 0 | 0.0 | 0.0 | 0.00 | 0.00 | 0.00 | 60 | 1015.2 |
| 20260509193049 | 65 | 0 | 0.0 | 0.0 | 0.00 | 0.00 | 0.00 | 59 | 1015.1 |
| 20260509192539 | 65 | 0 | 0.0 | 0.0 | 0.00 | 0.00 | 0.00 | 59 | 1015.1 |
| 20260509192036 | 66 | 0 | 0.0 | 0.0 | 0.00 | 0.00 | 0.00 | 59 | 1015.2 |
| 20260509191553 | 66 | 0 | 0.0 | 0.0 | 0.00 | 0.00 | 0.00 | 58 | 1015.2 |
| 20260509191040 | 66 | 0 | 0.0 | 0.0 | 0.00 | 0.00 | 0.00 | 58 | 1015.2 |
| 20260509190535 | 66 | 0 | 0.0 | 0.0 | 0.00 | 0.00 | 0.00 | 58 | 1015.0 |
| 20260509190047 | 66 | 0 | 0.0 | 0.0 | 0.00 | 0.00 | 0.00 | 58 | 1015.0 |
| 20260509185533 | 66 | 0 | 0.0 | 0.0 | 0.00 | 0.00 | 0.00 | 58 | 1015.0 |
| 20260509185037 | 66 | 0 | 0.0 | 0.0 | 0.00 | 0.00 | 0.00 | 57 | 1015.0 |
| 20260509184542 | 65 | 0 | 0.0 | 0.0 | 0.00 | 0.00 | 0.00 | 58 | 1015.1 |
| 20260509184035 | 65 | 0 | 0.0 | 0.0 | 0.00 | 0.00 | 0.00 | 59 | 1015.2 |
| 20260509183534 | 65 | 0 | 0.0 | 3.0 | 0.00 | 0.00 | 0.00 | 60 | 1015.2 |
| 20260509183054 | 65 | 0 | 0.0 | 3.0 | 0.00 | 0.00 | 0.00 | 60 | 1015.1 |
| 20260509182537 | 65 | 0 | 0.0 | 3.0 | 0.00 | 0.00 | 0.00 | 60 | 1015.1 |
| 20260509182034 | 65 | 247 | 1.0 | 3.0 | 0.00 | 0.00 | 0.00 | 60 | 1015.1 |
| 20260509181550 | 66 | 0 | 0.0 | 0.0 | 0.00 | 0.00 | 0.00 | 60 | 1015.1 |
| 20260509181035 | 65 | 0 | 0.0 | 0.0 | 0.00 | 0.00 | 0.00 | 60 | 1015.2 |
| 20260509180537 | 66 | 0 | 0.0 | 2.0 | 0.00 | 0.00 | 0.00 | 60 | 1015.1 |
| 20260509180053 | 66 | 0 | 0.0 | 2.0 | 0.00 | 0.00 | 0.00 | 60 | 1015.2 |
| 20260509175535 | 66 | 0 | 0.0 | 2.0 | 0.00 | 0.00 | 0.00 | 59 | 1015.2 |
| 20260509175040 | 66 | 0 | 0.0 | 5.0 | 0.00 | 0.00 | 0.00 | 58 | 1015.2 |
| 20260509174557 | 66 | 0 | 0.0 | 5.0 | 0.00 | 0.00 | 0.00 | 58 | 1015.2 |
| 20260509174036 | 66 | 229 | 2.0 | 5.0 | 0.00 | 0.00 | 0.00 | 59 | 1015.1 |
| 20260509173534 | 66 | 252 | 1.0 | 4.0 | 0.00 | 0.00 | 0.00 | 57 | 1015.2 |
| 20260509173049 | 66 | 0 | 0.0 | 3.0 | 0.00 | 0.00 | 0.00 | 55 | 1015.1 |
| 20260509172534 | 67 | 150 | 0.0 | 3.0 | 0.00 | 0.00 | 0.00 | 55 | 1015.0 |
| 20260509172036 | 67 | 0 | 0.0 | 4.0 | 0.00 | 0.00 | 0.00 | 57 | 1015.1 |
| 20260509171553 | 67 | 0 | 0.0 | 4.0 | 0.00 | 0.00 | 0.00 | 57 | 1015.1 |
| 20260509171034 | 67 | 0 | 0.0 | 3.0 | 0.00 | 0.00 | 0.00 | 56 | 1015.1 |
| 20260509170536 | 67 | 215 | 0.0 | 3.0 | 0.00 | 0.00 | 0.00 | 55 | 1015.2 |
| 20260509170048 | 67 | 0 | 0.0 | 3.0 | 0.00 | 0.00 | 0.00 | 55 | 1015.2 |
| 20260509165534 | 67 | 0 | 0.0 | 6.0 | 0.00 | 0.00 | 0.00 | 56 | 1015.2 |
| 20260509165034 | 68 | 0 | 0.0 | 6.0 | 0.00 | 0.00 | 0.00 | 55 | 1015.2 |
| 20260509164547 | 67 | 206 | 1.0 | 6.0 | 0.00 | 0.00 | 0.00 | 56 | 1015.2 |
| 20260509164035 | 67 | 200 | 0.0 | 4.0 | 0.00 | 0.00 | 0.00 | 56 | 1015.3 |
| 20260509163533 | 67 | 0 | 0.0 | 4.0 | 0.00 | 0.00 | 0.00 | 56 | 1015.2 |
| 20260509163103 | 67 | 0 | 0.0 | 5.0 | 0.00 | 0.00 | 0.00 | 56 | 1015.2 |
| 20260509162535 | 67 | 0 | 0.0 | 5.0 | 0.00 | 0.00 | 0.00 | 55 | 1015.2 |
| 20260509162039 | 68 | 216 | 2.0 | 6.0 | 0.00 | 0.00 | 0.00 | 54 | 1015.3 |
| 20260509161550 | 68 | 201 | 2.0 | 6.0 | 0.00 | 0.00 | 0.00 | 54 | 1015.3 |
| 20260509161038 | 69 | 0 | 1.0 | 7.0 | 0.00 | 0.00 | 0.00 | 52 | 1015.2 |
| 20260509160534 | 69 | 0 | 0.0 | 7.0 | 0.00 | 0.00 | 0.00 | 51 | 1015.2 |
| 20260509160059 | 69 | 0 | 2.0 | 7.0 | 0.00 | 0.00 | 0.00 | 47 | 1015.2 |
| 20260509155534 | 70 | 144 | 1.0 | 8.0 | 0.00 | 0.00 | 0.00 | 48 | 1015.3 |
| 20260509155035 | 70 | 142 | 2.0 | 8.0 | 0.00 | 0.00 | 0.00 | 48 | 1015.2 |
| 20260509154601 | 70 | 0 | 0.0 | 8.0 | 0.00 | 0.00 | 0.00 | 48 | 1015.2 |
| 20260509154035 | 70 | 138 | 2.0 | 8.0 | 0.00 | 0.00 | 0.00 | 48 | 1015.3 |
| 20260509153533 | 69 | 161 | 2.0 | 8.0 | 0.00 | 0.00 | 0.00 | 47 | 1015.2 |
| 20260509153047 | 69 | 0 | 1.0 | 8.0 | 0.00 | 0.00 | 0.00 | 49 | 1015.4 |
| 20260509152534 | 68 | 0 | 1.0 | 8.0 | 0.00 | 0.00 | 0.00 | 51 | 1015.5 |
| 20260509152036 | 67 | 0 | 3.0 | 8.0 | 0.00 | 0.00 | 0.00 | 52 | 1015.4 |
| 20260509151553 | 67 | 149 | 1.0 | 12.0 | 0.00 | 0.00 | 0.00 | 53 | 1015.5 |
| 20260509151035 | 67 | 134 | 5.0 | 12.0 | 0.00 | 0.00 | 0.00 | 53 | 1015.6 |
| 20260509150534 | 68 | 197 | 4.0 | 11.0 | 0.00 | 0.00 | 0.00 | 51 | 1015.6 |
| 20260509150047 | 69 | 174 | 6.0 | 11.0 | 0.00 | 0.00 | 0.00 | 51 | 1015.6 |
| 20260509145535 | 69 | 146 | 5.0 | 11.0 | 0.00 | 0.00 | 0.00 | 49 | 1015.7 |
| 20260509145036 | 69 | 0 | 5.0 | 12.0 | 0.00 | 0.00 | 0.00 | 49 | 1015.7 |
| 20260509144606 | 69 | 138 | 5.0 | 12.0 | 0.00 | 0.00 | 0.00 | 47 | 1015.7 |
| 20260509144034 | 71 | 155 | 6.0 | 12.0 | 0.00 | 0.00 | 0.00 | 45 | 1015.7 |
| 20260509143534 | 71 | 122 | 4.0 | 12.0 | 0.00 | 0.00 | 0.00 | 45 | 1015.7 |
| 20260509143053 | 71 | 170 | 3.0 | 12.0 | 0.00 | 0.00 | 0.00 | 45 | 1015.8 |
| 20260509142535 | 71 | 0 | 2.0 | 10.0 | 0.00 | 0.00 | 0.00 | 45 | 1015.9 |
| 20260509142034 | 72 | 103 | 2.0 | 13.0 | 0.00 | 0.00 | 0.00 | 44 | 1015.8 |
| 20260509141542 | 73 | 0 | 3.0 | 13.0 | 0.00 | 0.00 | 0.00 | 43 | 1015.8 |
| 20260509141034 | 73 | 181 | 4.0 | 12.0 | 0.00 | 0.00 | 0.00 | 43 | 1015.7 |
| 20260509140534 | 73 | 0 | 2.0 | 12.0 | 0.00 | 0.00 | 0.00 | 43 | 1015.6 |
| 20260509140100 | 73 | 0 | 4.0 | 12.0 | 0.00 | 0.00 | 0.00 | 42 | 1015.6 |
| 20260509135536 | 73 | 0 | 3.0 | 12.0 | 0.00 | 0.00 | 0.00 | 44 | 1015.6 |
| 20260509135035 | 72 | 0 | 2.0 | 11.0 | 0.00 | 0.00 | 0.00 | 44 | 1015.7 |
| 20260509134551 | 71 | 146 | 0.0 | 10.0 | 0.00 | 0.00 | 0.00 | 48 | 1015.6 |
| 20260509134037 | 72 | 0 | 0.0 | 10.0 | 0.00 | 0.00 | 0.00 | 45 | 1015.6 |
| 20260509133534 | 72 | 180 | 3.0 | 11.0 | 0.00 | 0.00 | 0.00 | 45 | 1015.6 |
| 20260509133051 | 71 | 0 | 2.0 | 12.0 | 0.00 | 0.00 | 0.00 | 47 | 1015.6 |
| 20260509132537 | 71 | 211 | 1.0 | 14.0 | 0.00 | 0.00 | 0.00 | 48 | 1015.6 |
| 20260509132037 | 71 | 138 | 4.0 | 14.0 | 0.00 | 0.00 | 0.00 | 45 | 1015.6 |
| 20260509131555 | 71 | 148 | 5.0 | 11.0 | 0.00 | 0.00 | 0.00 | 46 | 1015.6 |
| 20260509131034 | 71 | 105 | 5.0 | 11.0 | 0.00 | 0.00 | 0.00 | 45 | 1015.8 |
| 20260509130534 | 72 | 157 | 5.0 | 11.0 | 0.00 | 0.00 | 0.00 | 43 | 1015.6 |
| 20260509130055 | 73 | 132 | 3.0 | 11.0 | 0.00 | 0.00 | 0.00 | 42 | 1015.7 |
| 20260509125534 | 73 | 65 | 5.0 | 11.0 | 0.00 | 0.00 | 0.00 | 42 | 1015.8 |
| 20260509125036 | 72 | 46 | 5.0 | 14.0 | 0.00 | 0.00 | 0.00 | 42 | 1015.8 |
| 20260509124550 | 71 | 0 | 2.0 | 14.0 | 0.00 | 0.00 | 0.00 | 44 | 1015.6 |
| 20260509124036 | 71 | 167 | 7.0 | 13.0 | 0.00 | 0.00 | 0.00 | 44 | 1015.7 |
| 20260509123534 | 71 | 149 | 7.0 | 13.0 | 0.00 | 0.00 | 0.00 | 44 | 1015.7 |
| 20260509123044 | 71 | 106 | 5.0 | 13.0 | 0.00 | 0.00 | 0.00 | 44 | 1015.8 |
| 20260509122536 | 71 | 97 | 2.0 | 13.0 | 0.00 | 0.00 | 0.00 | 45 | 1015.9 |
| 20260509122036 | 71 | 190 | 6.0 | 13.0 | 0.00 | 0.00 | 0.00 | 45 | 1015.9 |
| 20260509121559 | 71 | 144 | 4.0 | 12.0 | 0.00 | 0.00 | 0.00 | 46 | 1015.9 |
| 20260509121035 | 71 | 128 | 7.0 | 14.0 | 0.00 | 0.00 | 0.00 | 46 | 1016.0 |
| 20260509120539 | 71 | 150 | 5.0 | 14.0 | 0.00 | 0.00 | 0.00 | 46 | 1015.9 |
| 20260509120054 | 70 | 99 | 8.0 | 14.0 | 0.00 | 0.00 | 0.00 | 47 | 1015.9 |
| 20260509115535 | 69 | 132 | 6.0 | 13.0 | 0.00 | 0.00 | 0.00 | 48 | 1015.9 |
| 20260509115035 | 70 | 154 | 5.0 | 11.0 | 0.00 | 0.00 | 0.00 | 48 | 1016.2 |
| 20260509114545 | 69 | 123 | 7.0 | 11.0 | 0.00 | 0.00 | 0.00 | 49 | 1016.2 |
| 20260509114035 | 69 | 94 | 4.0 | 10.0 | 0.00 | 0.00 | 0.00 | 51 | 1016.2 |
| 20260509113539 | 69 | 140 | 4.0 | 14.0 | 0.00 | 0.00 | 0.00 | 51 | 1016.3 |
| 20260509113050 | 69 | 110 | 5.0 | 14.0 | 0.00 | 0.00 | 0.00 | 47 | 1016.4 |
| 20260509112537 | 69 | 119 | 4.0 | 10.0 | 0.00 | 0.00 | 0.00 | 49 | 1016.5 |
| 20260509112036 | 69 | 73 | 4.0 | 14.0 | 0.00 | 0.00 | 0.00 | 47 | 1016.5 |
| 20260509111556 | 69 | 91 | 7.0 | 14.0 | 0.00 | 0.00 | 0.00 | 48 | 1016.4 |
| 20260509111036 | 69 | 69 | 5.0 | 13.0 | 0.00 | 0.00 | 0.00 | 48 | 1016.5 |
| 20260509110539 | 69 | 95 | 6.0 | 12.0 | 0.00 | 0.00 | 0.00 | 49 | 1016.5 |
| 20260509110046 | 69 | 94 | 4.0 | 14.0 | 0.00 | 0.00 | 0.00 | 49 | 1016.7 |
| 20260509105537 | 69 | 100 | 6.0 | 14.0 | 0.00 | 0.00 | 0.00 | 47 | 1016.7 |
| 20260509105036 | 71 | 61 | 5.0 | 13.0 | 0.00 | 0.00 | 0.00 | 48 | 1016.8 |
| 20260509104545 | 70 | 48 | 4.0 | 11.0 | 0.00 | 0.00 | 0.00 | 49 | 1016.8 |
| 20260509104036 | 70 | 122 | 5.0 | 11.0 | 0.00 | 0.00 | 0.00 | 49 | 1016.8 |
| 20260509103535 | 69 | 55 | 5.0 | 11.0 | 0.00 | 0.00 | 0.00 | 48 | 1016.9 |
| 20260509103043 | 69 | 84 | 4.0 | 11.0 | 0.00 | 0.00 | 0.00 | 49 | 1016.9 |
| 20260509102535 | 69 | 104 | 4.0 | 13.0 | 0.00 | 0.00 | 0.00 | 51 | 1016.9 |
| 20260509102036 | 68 | 63 | 5.0 | 13.0 | 0.00 | 0.00 | 0.00 | 52 | 1017.0 |
| 20260509101544 | 68 | 51 | 5.0 | 13.0 | 0.00 | 0.00 | 0.00 | 51 | 1017.1 |
| 20260509101035 | 68 | 48 | 5.0 | 10.0 | 0.00 | 0.00 | 0.00 | 53 | 1017.0 |
| 20260509100535 | 67 | 93 | 3.0 | 10.0 | 0.00 | 0.00 | 0.00 | 55 | 1016.9 |
| 20260509100047 | 67 | 50 | 5.0 | 10.0 | 0.00 | 0.00 | 0.00 | 55 | 1016.9 |
| 20260509095535 | 66 | 61 | 5.0 | 10.0 | 0.00 | 0.00 | 0.00 | 56 | 1017.0 |
| 20260509095036 | 66 | 120 | 4.0 | 13.0 | 0.00 | 0.00 | 0.00 | 56 | 1017.0 |
| 20260509094551 | 66 | 88 | 4.0 | 13.0 | 0.00 | 0.00 | 0.00 | 57 | 1017.0 |
| 20260509094035 | 66 | 55 | 4.0 | 13.0 | 0.00 | 0.00 | 0.00 | 56 | 1017.1 |
| 20260509093535 | 66 | 23 | 3.0 | 8.0 | 0.00 | 0.00 | 0.00 | 59 | 1017.1 |
| 20260509093047 | 66 | 69 | 3.0 | 8.0 | 0.00 | 0.00 | 0.00 | 59 | 1017.1 |
| 20260509092535 | 65 | 72 | 4.0 | 8.0 | 0.00 | 0.00 | 0.00 | 60 | 1017.2 |
| 20260509092038 | 64 | 43 | 2.0 | 8.0 | 0.00 | 0.00 | 0.00 | 61 | 1017.2 |
| 20260509091543 | 64 | 350 | 3.0 | 8.0 | 0.00 | 0.00 | 0.00 | 61 | 1017.3 |